Orbital Elements at Epoch 2459000.5 (2020-May-31.0) TDB
Reference: JPL 25 (heliocentric ecliptic J2000)
Element | Value | Uncertainty (1-sigma) | Units |
e | .1714595926691719 | 4.0708e-08 | |
a | 3.169523467412698 | 1.8244e-08 | au |
q | 2.626078264734736 | 1.2796e-07 | au |
i | 28.72121667949469 | 5.0669e-06 | deg |
node | 142.9526496142334 | 8.1608e-06 | deg |
peri | 204.6781792838855 | 1.5226e-05 | deg |
M | 37.80843775683465 | 1.2133e-05 | deg |
tp | 2458784.041015671898 (2019-Oct-27.54101567) | 6.9322e-05 | TDB |
period | 2061.054065743044 5.64 | 1.7795e-05 4.872e-08 | d yr |
n | .1746679070595919 | 1.5081e-09 | deg/d |
Q | 3.712968670090661 | 2.1372e-08 | au |
|
| | Orbit Determination Parameters
Additional Information
|